Flag for Russia Weather past 2 weeks in Yekaterinburg, Russia

Now
63 °F

Passing clouds.


Feels Like: 63 °F
Forecast: 49 / 59 °F
Wind: 17 mph from Southwest

Location: Ekaterinburg

Current Time: Aug 30, 2014 at 6:25:32 AM

Latest Report: Aug 30, 2014 at 5:30 AM


Visibility: N/A

Pressure: 29.50 "Hg

Humidity: 77%

Dew point: 55 °F

Location of YekaterinburgLocation

Historic Weather in Yekaterinburg — Graph

°F

Yekaterinburg temperature yesterday

Maximum temperature yesterday: 72 °F (at 5:30 PM)
Minimum temperature yesterday: 55 °F (at 12:00 AM)
Average temperature yesterday: 62 °F

Past Weeks' High & Low Weather Summary

 TemperatureHumidityPressure
High82 °F (Aug 17, 5:00 PM)100% (Aug 15, 5:00 AM)30.18 "Hg (Aug 15, 5:00 AM)
Low36 °F (Aug 26, 7:00 AM)64% (Aug 26, 4:00 PM)29.47 "Hg (Aug 30, 3:30 AM)
Average62 °F94%29.90 "Hg
* Reported Aug 15 5:00 AM — Aug 30 5:30 AM, Yekaterinburg, Weather by CustomWeather, © 2014

Note: Actual official high and low records may vary slightly from our data, if they occured in-between our weather recording intervals... More about our weather records

Advertising

Yekaterinburg weather history for previous 24 hours

 ConditionsComfort  
Time TempWeatherWind HumidityBarometerVisibility
5:30 AM
Aug 30
63 °FPassing clouds.17 mph77%29.50 "HgN/A
5:00 AM63 °FPassing clouds.20 mph94%29.47 "HgN/A
4:30 AM63 °FPassing clouds.8 mph94%29.47 "HgN/A
4:00 AM63 °FClear.8 mph100%29.47 "Hg10 mi
3:30 AM63 °FClear.8 mph100%29.47 "Hg10 mi
3:00 AM63 °FClear.8 mph100%29.50 "Hg10 mi
1:00 AM64 °FClear.8 mph100%29.50 "Hg10 mi
12:30 AM66 °FClear.10 mph94%29.53 "Hg10 mi
12:00 AM66 °FClear.10 mph100%29.53 "Hg10 mi
11:30 PM
Aug 29
64 °FClear.10 mph100%29.53 "Hg10 mi
11:00 PM66 °FClear.13 mph94%29.56 "Hg10 mi
10:30 PM66 °FClear.10 mph100%29.56 "Hg10 mi
10:00 PM66 °FPartly sunny.10 mph100%29.56 "HgN/A
9:30 PM68 °FBroken clouds.13 mph94%29.56 "HgN/A
9:00 PM70 °FBroken clouds.13 mph94%29.56 "HgN/A
8:30 PM70 °FSprinkles. More clouds than sun.15 mph94%29.59 "HgN/A
8:00 PM68 °FMore clouds than sun.6 mph100%29.62 "HgN/A
7:30 PM68 °FSunny.3 mph100%29.62 "Hg10 mi
7:00 PM68 °FSunny.6 mph100%29.62 "Hg10 mi
6:30 PM70 °FSunny.8 mph94%29.65 "Hg10 mi
6:00 PM70 °FSunny.8 mph94%29.65 "Hg10 mi
5:30 PM72 °FPartly sunny.10 mph88%29.65 "HgN/A
5:00 PM70 °FPartly sunny.8 mph94%29.65 "HgN/A
4:30 PM70 °FBroken clouds.6 mph94%29.68 "HgN/A
4:00 PM68 °FPartly sunny.10 mph94%29.68 "HgN/A
3:30 PM66 °FMostly cloudy.8 mph94%29.71 "HgN/A
3:00 PM64 °FMostly cloudy.6 mph100%29.71 "HgN/A
2:30 PM63 °FCloudy.6 mph100%29.71 "HgN/A
2:00 PM61 °FSprinkles. Mostly cloudy.6 mph100%29.74 "HgN/A
1:30 PM61 °FSprinkles. Mostly cloudy.6 mph100%29.74 "HgN/A
1:00 PM61 °FSprinkles. Mostly cloudy.6 mph100%29.74 "Hg4 mi
12:30 PM61 °FSprinkles. Mostly cloudy.10 mph100%29.77 "HgN/A
12:00 PM61 °FMore clouds than sun.6 mph100%29.77 "HgN/A
11:30 AM61 °FSprinkles. More clouds than sun.6 mph94%29.77 "HgN/A
11:00 AM59 °FSprinkles. More clouds than sun.6 mph100%29.80 "Hg4 mi
10:30 AM59 °FMore clouds than sun.6 mph100%29.80 "HgN/A
10:00 AM59 °FMostly cloudy.1 mph100%29.80 "HgN/A
9:30 AM59 °FSprinkles. Mostly cloudy.3 mph94%29.80 "HgN/A
9:00 AM57 °FSprinkles. More clouds than sun.3 mph100%29.80 "HgN/A
8:30 AM57 °FSprinkles. More clouds than sun.3 mph100%29.80 "HgN/A
8:00 AM57 °FMore clouds than sun.6 mph100%29.80 "HgN/A
7:30 AM57 °FSprinkles. Mostly cloudy.3 mph100%29.80 "HgN/A
7:00 AM57 °FClear.3 mph100%29.80 "Hg10 mi
6:30 AM57 °FClear.3 mph100%29.83 "Hg10 mi
6:00 AM55 °FClear.1 mph100%29.83 "Hg10 mi
Weather by CustomWeather, © 2014

See weather overviewHow to use our weather pages